Retour au catalogue

CZ-6A DEB

ActifSSO
NORAD 54442·DEBRIS·🇨🇳 China

Lancé Nov 11, 2022 depuis Taiyuan Satellite Launch Center

Loading…

Prochains Passages (prochaines 24 heures)

TLE

FraisSource: Space-Track

Époque: Sep 14, 2026, 08:19 UTC

1 54442U 22151FS  26257.34694929  .00000454  00000-0  32089-3 0  9996
2 54442  98.8760 229.8315 0105644 169.4653 190.8760 14.00088552195855

Suivez CZ-6A DEB en temps réel avec AllMySat

Download on the App Store